Flag for Germany Weather past 2 weeks in Regensburg, Bavaria, Germany

Now
42 °F

Clear.


Feels Like: 42 °F
Forecast: 37 / 60 °F
Wind: 2 mph from North

Location: Regensburg

Current Time: Apr 20, 2015 at 1:10:23 AM

Latest Report: Apr 20, 2015 at 12:00 AM


Visibility: 22 mi

Pressure: 30.21 "Hg

Humidity: 62%

Dew point: 30 °F

Location of RegensburgLocation

Historic Weather in Regensburg — Graph

°F

Regensburg temperature yesterday

Maximum temperature yesterday: 61 °F (at 6:00 PM)
Minimum temperature yesterday: 28 °F (at 6:00 AM)
Average temperature yesterday: 45 °F

Past Weeks' High & Low Weather Summary

 TemperatureHumidityPressure
High79 °F (Apr 15, 5:00 PM)98% (Apr 10, 7:00 AM)30.66 "Hg (Apr 10, 7:00 AM)
Low26 °F (Apr 7, 7:00 AM)22% (Apr 15, 6:00 PM)29.85 "Hg (Apr 16, 7:00 PM)
Average49 °F64%30.25 "Hg
* Reported Midnight between Apr 4 and Apr 5 — Midnight between Apr 19 and Apr 20, Regensburg, Weather by CustomWeather, © 2015

Note: Actual official high and low records may vary slightly from our data, if they occured in-between our weather recording intervals... More about our weather records

Advertising

Regensburg weather history for previous 24 hours

 ConditionsComfort  
Time TempWeatherWind HumidityBarometerVisibility
12:00 AM
Mon, Apr 20
42 °FClear.2 mph62%30.21 "Hg22 mi
11:00 PM
Sun, Apr 19
44 °FClear.1 mph55%30.20 "Hg22 mi
10:00 PM47 °FClear.1 mph52%30.17 "Hg25 mi
9:00 PM50 °FClear.1 mph44%30.15 "Hg28 mi
8:00 PM55 °FSunny.3 mph35%30.12 "Hg34 mi
7:00 PM59 °FSunny.3 mph31%30.10 "Hg31 mi
6:00 PM61 °FSunny.2 mph22%30.09 "Hg19 mi
5:00 PM60 °FSunny.2 mph27%30.09 "Hg19 mi
4:00 PM58 °FSunny.2 mph32%30.11 "Hg13 mi
3:00 PM58 °FSunny.2 mph32%30.12 "Hg14 mi
2:00 PM58 °FSunny.2 mph35%30.14 "Hg15 mi
1:00 PM54 °FSunny.3 mph36%30.15 "Hg12 mi
12:00 PM52 °FSunny.2 mph40%30.17 "Hg16 mi
11:00 AM50 °FSunny.2 mph43%30.19 "Hg19 mi
10:00 AM44 °FSunny.1 mph61%30.21 "Hg16 mi
9:00 AM37 °FSunny.1 mph73%30.24 "Hg12 mi
8:00 AM30 °FSunny.3 mph86%30.26 "Hg12 mi
7:00 AM28 °FSunny.2 mph91%30.26 "Hg10 mi
6:00 AM28 °FClear.2 mph90%30.26 "Hg10 mi
5:00 AM29 °FClear.1 mph89%30.27 "Hg11 mi
4:00 AM30 °FClear.2 mph88%30.28 "Hg13 mi
3:00 AM31 °FClear.2 mph89%30.29 "Hg15 mi
2:00 AM33 °FClear.3 mph83%30.29 "Hg16 mi
1:00 AM34 °FClear.2 mph78%30.29 "Hg17 mi
Weather by CustomWeather, © 2015

See weather overviewHow to use our weather pages